EN

Hourly Weather Allahabad

Today, 25 January, Monday

Time Temperature Precipitation Wind Pressure Humidity
00:00 +15°C° 0 mm 2 mps 753 mmHg 58%
01:00 +14°C° 0 mm 2 mps 753 mmHg 62%
02:00 +13°C° 0 mm 1 mps 752 mmHg 65%
03:00 +13°C° 0 mm 1 mps 752 mmHg 68%
04:00 +12°C° 0 mm 1 mps 752 mmHg 71%
05:00 +10°C° 0 mm 0 mps 753 mmHg 75%
06:00 +12°C° 0 mm 0 mps 754 mmHg 70%
07:00 +14°C° 0 mm 1 mps 754 mmHg 65%
08:00 +15°C° 0 mm 1 mps 755 mmHg 60%
09:00 +19°C° 0 mm 1 mps 755 mmHg 54%
10:00 +21°C° 0 mm 1 mps 755 mmHg 47%
11:00 +23°C° 0 mm 1 mps 755 mmHg 40%
12:00 +24°C° 0 mm 1 mps 754 mmHg 39%
13:00 +25°C° 0 mm 1 mps 753 mmHg 37%
14:00 +25°C° 0 mm 2 mps 753 mmHg 35%
15:00 +24°C° 0 mm 2 mps 752 mmHg 39%
16:00 +22°C° 0 mm 1 mps 752 mmHg 44%
17:00 +21°C° 0 mm 1 mps 752 mmHg 48%
18:00 +20°C° 0 mm 1 mps 753 mmHg 51%
19:00 +18°C° 0 mm 2 mps 753 mmHg 53%
20:00 +17°C° 0 mm 2 mps 754 mmHg 55%
21:00 +16°C° 0 mm 2 mps 754 mmHg 58%
22:00 +15°C° 0 mm 2 mps 754 mmHg 62%
23:00 +14°C° 0 mm 2 mps 753 mmHg 65%

Tomorrow, 26 January, Tuesday

Time Temperature Precipitation Wind Pressure Humidity
00:00 +14°C° 0 mm 1 mps 753 mmHg 68%
01:00 +13°C° 0 mm 1 mps 753 mmHg 72%
02:00 +11°C° 0 mm 0 mps 753 mmHg 75%
03:00 +11°C° 0 mm 0 mps 753 mmHg 76%
04:00 +10°C° 0 mm 0 mps 753 mmHg 77%
05:00 +11°C° 0 mm 1 mps 753 mmHg 78%
06:00 +12°C° 0 mm 1 mps 753 mmHg 74%
07:00 +14°C° 0 mm 1 mps 754 mmHg 69%
08:00 +15°C° 0 mm 1 mps 755 mmHg 65%
09:00 +18°C° 0 mm 1 mps 755 mmHg 58%
10:00 +21°C° 0 mm 1 mps 754 mmHg 51%
11:00 +23°C° 0 mm 1 mps 754 mmHg 45%
12:00 +24°C° 0 mm 1 mps 753 mmHg 41%
13:00 +25°C° 0 mm 2 mps 752 mmHg 38%
14:00 +25°C° 0 mm 2 mps 751 mmHg 35%
15:00 +24°C° 0 mm 2 mps 751 mmHg 37%
16:00 +21°C° 0 mm 2 mps 751 mmHg 40%
17:00 +20°C° 0 mm 2 mps 752 mmHg 43%
18:00 +18°C° 0 mm 2 mps 752 mmHg 43%
19:00 +17°C° 0 mm 2 mps 752 mmHg 42%
20:00 +16°C° 0 mm 3 mps 753 mmHg 42%
21:00 +15°C° 0 mm 2 mps 753 mmHg 43%
22:00 +14°C° 0 mm 2 mps 753 mmHg 45%
23:00 +13°C° 0 mm 2 mps 753 mmHg 47%

Day after tomorrow, 27 January, Wednesday

Time Temperature Precipitation Wind Pressure Humidity
00:00 +12°C° 0 mm 1 mps 753 mmHg 49%
01:00 +11°C° 0 mm 1 mps 753 mmHg 52%
02:00 +11°C° 0 mm 1 mps 752 mmHg 55%
03:00 +10°C° 0 mm 1 mps 752 mmHg 57%
04:00 +10°C° 0 mm 1 mps 752 mmHg 59%
05:00 +10°C° 0 mm 1 mps 753 mmHg 60%
06:00 +11°C° 0 mm 1 mps 753 mmHg 57%
07:00 +12°C° 0 mm 1 mps 754 mmHg 54%
08:00 +14°C° 0 mm 1 mps 754 mmHg 51%
09:00 +16°C° 0 mm 1 mps 754 mmHg 46%
10:00 +20°C° 0 mm 1 mps 754 mmHg 40%
11:00 +22°C° 0 mm 1 mps 754 mmHg 35%
12:00 +23°C° 0 mm 1 mps 753 mmHg 32%
13:00 +24°C° 0 mm 2 mps 752 mmHg 29%
14:00 +25°C° 0 mm 2 mps 752 mmHg 26%
15:00 +23°C° 0 mm 1 mps 752 mmHg 31%
16:00 +21°C° 0 mm 1 mps 751 mmHg 35%
17:00 +20°C° 0 mm 1 mps 751 mmHg 40%
18:00 +18°C° 0 mm 1 mps 752 mmHg 42%
19:00 +16°C° 0 mm 1 mps 752 mmHg 45%
20:00 +15°C° 0 mm 1 mps 753 mmHg 47%
21:00 +14°C° 0 mm 1 mps 753 mmHg 49%
22:00 +14°C° 0 mm 1 mps 753 mmHg 51%
23:00 +13°C° 0 mm 1 mps 753 mmHg 53%

28 January, Thursday

Time Temperature Precipitation Wind Pressure Humidity
00:00 +12°C° 0 mm 1 mps 753 mmHg 55%
01:00 +12°C° 0 mm 1 mps 753 mmHg 57%
02:00 +11°C° 0 mm 1 mps 752 mmHg 60%
03:00 +10°C° 0 mm 0 mps 753 mmHg 61%
04:00 +10°C° 0 mm 0 mps 753 mmHg 63%
05:00 +9°C° 0 mm 0 mps 753 mmHg 65%
06:00 +11°C° 0 mm 0 mps 753 mmHg 60%
07:00 +14°C° 0 mm 1 mps 754 mmHg 56%
08:00 +15°C° 0 mm 1 mps 754 mmHg 51%
09:00 +19°C° 0 mm 1 mps 754 mmHg 46%
10:00 +20°C° 0 mm 2 mps 754 mmHg 40%
11:00 +23°C° 0 mm 2 mps 754 mmHg 35%
12:00 +24°C° 0 mm 2 mps 753 mmHg 33%
13:00 +25°C° 0 mm 2 mps 753 mmHg 31%
14:00 +26°C° 0 mm 2 mps 752 mmHg 29%
15:00 +25°C° 0 mm 2 mps 752 mmHg 34%
16:00 +23°C° 0 mm 2 mps 751 mmHg 38%
17:00 +21°C° 0 mm 2 mps 751 mmHg 43%
18:00 +20°C° 0 mm 2 mps 752 mmHg 44%
19:00 +19°C° 0 mm 2 mps 752 mmHg 45%
20:00 +18°C° 0 mm 2 mps 753 mmHg 46%
21:00 +17°C° 0 mm 2 mps 753 mmHg 49%
22:00 +16°C° 0 mm 1 mps 753 mmHg 53%
23:00 +15°C° 0 mm 1 mps 753 mmHg 57%

29 January, Friday

Time Temperature Precipitation Wind Pressure Humidity
00:00 +14°C° 0.1 mm 1 mps 753 mmHg 59%
01:00 +14°C° 0.1 mm 2 mps 753 mmHg 62%
02:00 +14°C° 0.1 mm 2 mps 753 mmHg 64%
03:00 +13°C° 0 mm 1 mps 753 mmHg 66%
04:00 +13°C° 0 mm 1 mps 753 mmHg 68%
05:00 +11°C° 0 mm 0 mps 753 mmHg 70%
06:00 +12°C° 0 mm 0 mps 754 mmHg 66%
07:00 +14°C° 0 mm 0 mps 754 mmHg 63%
08:00 +15°C° 0 mm 0 mps 755 mmHg 59%
09:00 +17°C° 0 mm 0 mps 755 mmHg 52%
10:00 +22°C° 0 mm 1 mps 754 mmHg 45%
11:00 +24°C° 0 mm 1 mps 754 mmHg 38%
12:00 +25°C° 0 mm 1 mps 753 mmHg 36%
13:00 +26°C° 0 mm 2 mps 752 mmHg 34%
14:00 +27°C° 0 mm 2 mps 752 mmHg 31%
15:00 +25°C° 0 mm 2 mps 751 mmHg 35%
16:00 +24°C° 0 mm 2 mps 751 mmHg 39%
17:00 +21°C° 0 mm 2 mps 751 mmHg 43%
18:00 +20°C° 0 mm 2 mps 752 mmHg 45%
19:00 +18°C° 0 mm 3 mps 752 mmHg 47%
20:00 +17°C° 0 mm 3 mps 753 mmHg 49%
21:00 +16°C° 0 mm 3 mps 753 mmHg 48%
22:00 +14°C° 0 mm 3 mps 753 mmHg 47%
23:00 +13°C° 0 mm 3 mps 753 mmHg 46%

30 January, Saturday

Time Temperature Precipitation Wind Pressure Humidity
00:00 +13°C° 0 mm 3 mps 753 mmHg 47%
01:00 +12°C° 0 mm 3 mps 753 mmHg 49%
02:00 +12°C° 0 mm 2 mps 753 mmHg 51%
03:00 +10°C° 0 mm 2 mps 753 mmHg 53%
04:00 +10°C° 0 mm 2 mps 753 mmHg 56%
05:00 +9°C° 0 mm 2 mps 753 mmHg 59%
06:00 +10°C° 0 mm 2 mps 753 mmHg 56%
07:00 +12°C° 0 mm 2 mps 754 mmHg 53%
08:00 +14°C° 0 mm 2 mps 754 mmHg 51%
09:00 +16°C° 0 mm 2 mps 754 mmHg 43%
10:00 +19°C° 0 mm 3 mps 754 mmHg 36%
11:00 +21°C° 0 mm 3 mps 754 mmHg 29%
12:00 +22°C° 0 mm 3 mps 753 mmHg 26%
13:00 +24°C° 0 mm 3 mps 753 mmHg 23%
14:00 +25°C° 0 mm 3 mps 752 mmHg 20%
15:00 +22°C° 0 mm 3 mps 752 mmHg 25%
16:00 +20°C° 0 mm 2 mps 752 mmHg 29%
17:00 +18°C° 0 mm 2 mps 752 mmHg 33%
18:00 +17°C° 0 mm 2 mps 752 mmHg 34%
19:00 +16°C° 0 mm 2 mps 753 mmHg 35%
20:00 +14°C° 0 mm 2 mps 753 mmHg 36%
21:00 +13°C° 0 mm 2 mps 753 mmHg 36%
22:00 +13°C° 0 mm 1 mps 753 mmHg 37%
23:00 +12°C° 0 mm 1 mps 754 mmHg 37%
Show more